Home   Weather   Bellinzona   Past weeks

Flag for Switzerland Past Weather in Bellinzona, Ticino, Switzerland — Yesterday and Last 2 Weeks

Now
63 °F

Mild.


Feels Like: 63 °F
Forecast: 56 / 79 °F
Wind: 1 mph from Northwest

Location: Locarno-Magadino

Current Time: Sep 25, 2016 at 9:13:03 PM

Latest Report: Sep 25, 2016 at 8:00 PM


Visibility: N/A

Pressure: 30.09 "Hg

Humidity: 75%

Dew Point: 55 °F

Location of BellinzonaLocation

Past Weather in Bellinzona — Graph

°F

Bellinzona Temperature Yesterday

Maximum temperature yesterday: 73 °F (at 4:00 PM)
Minimum temperature yesterday: 58 °F (at 11:00 PM)
Average temperature yesterday: 65 °F

High & Low Weather Summary for the Past Weeks

 TemperatureHumidityPressure
High86 °F (Sep 11, 4:00 PM)100% (Sep 17, 1:00 AM)30.33 "Hg (Sep 17, 1:00 AM)
Low50 °F (Sep 25, 7:00 AM)25% (Sep 19, 3:00 PM)29.79 "Hg (Sep 17, 1:00 PM)
Average66 °F76%30.02 "Hg
* Reported Sep 10 7:00 PM — Sep 25 7:00 PM, Bellinzona, Weather by CustomWeather, © 2016

Note: Actual official high and low records may vary slightly from our data, if they occured in-between our weather recording intervals... More about our weather records

Advertising

Bellinzona Weather History for the Previous 24 Hours

Scroll right to see more
 ConditionsComfort  
Time TempWeatherWind HumidityBarometerVisibility
7:00 PM
Sun, Sep 25
69 °FMild.6 mph57%30.06 "HgN/A
6:00 PM73 °FMild.8 mph48%30.04 "HgN/A
5:00 PM73 °FMild.9 mph51%30.04 "HgN/A
4:00 PM74 °FMild.10 mph50%30.04 "HgN/A
3:00 PM73 °FMild.9 mph53%30.06 "HgN/A
2:00 PM72 °FMild.8 mph54%30.09 "HgN/A
1:00 PM70 °FMild.5 mph59%30.12 "HgN/A
12:00 PM67 °FMild.1 mph63%30.15 "HgN/A
11:00 AM66 °FMild.1 mph71%30.18 "HgN/A
10:00 AM62 °FCool.1 mph82%30.20 "HgN/A
9:00 AM56 °FCool.No wind95%30.23 "HgN/A
8:00 AM50 °FCool.1 mph100%30.24 "HgN/A
7:00 AM50 °FCool.1 mph100%30.24 "HgN/A
6:00 AM51 °FCool.1 mph100%30.24 "HgN/A
5:00 AM52 °FCool.No wind99%30.25 "HgN/A
4:00 AM53 °FCool.1 mph98%30.25 "HgN/A
3:00 AM53 °FCool.1 mph99%30.26 "HgN/A
2:00 AM54 °FCool.1 mph97%30.26 "HgN/A
1:00 AM55 °FCool.1 mph99%30.26 "HgN/A
12:00 AM55 °FCool.1 mph99%30.27 "HgN/A
11:00 PM
Sat, Sep 24
58 °FCool.No wind93%30.27 "HgN/A
10:00 PM60 °FCool.1 mph88%30.27 "HgN/A
9:00 PM59 °FCool.1 mph91%30.25 "HgN/A
Weather by CustomWeather, © 2016

See weather overviewHow to use our weather pages